Time,TemperatureF,DewpointF,PressureIn,WindDirection,WindDirectionDegrees,WindSpeedMPH,WindSpeedGustMPH,Humidity,HourlyPrecipIn,Conditions,Clouds,dailyrainin,SoftwareType,DateUTC
2013-01-17 00:05:00,30.1,29.4,29.82,West,270,10.0,18.0,97,0.00,,,-99.99,WeatherLink 5.5,2013-01-17 05:05:00,
2013-01-17 01:00:00,30.3,29.6,29.84,West,270,11.0,19.0,97,0.00,,,-99.99,WeatherLink 5.5,2013-01-17 06:00:00,
2013-01-17 01:05:00,30.3,29.6,29.84,West,270,11.0,19.0,97,0.00,,,-99.99,WeatherLink 5.5,2013-01-17 06:05:00,
2013-01-17 02:00:00,30.3,29.6,29.84,West,270,10.0,17.0,97,0.00,,,-99.99,WeatherLink 5.5,2013-01-17 07:00:00,
2013-01-17 02:05:00,30.3,29.6,29.84,West,270,10.0,17.0,97,0.00,,,-99.99,WeatherLink 5.5,2013-01-17 07:05:00,
2013-01-17 03:00:00,29.8,29.1,29.85,West,270,10.0,15.0,97,0.00,,,-99.99,WeatherLink 5.5,2013-01-17 08:00:00,
2013-01-17 03:05:00,29.8,29.1,29.85,West,270,10.0,15.0,97,0.00,,,-99.99,WeatherLink 5.5,2013-01-17 08:05:00,
2013-01-17 04:00:00,29.3,28.3,29.84,West,270,10.0,17.0,96,0.00,,,-99.99,WeatherLink 5.5,2013-01-17 09:00:00,
2013-01-17 04:05:00,29.3,28.3,29.84,West,270,10.0,17.0,96,0.00,,,-99.99,WeatherLink 5.5,2013-01-17 09:05:00,
2013-01-17 05:00:00,28.5,27.3,29.84,West,270,10.0,16.0,95,0.00,,,-99.99,WeatherLink 5.5,2013-01-17 10:00:00,
2013-01-17 05:05:00,28.5,27.3,29.84,West,270,10.0,16.0,95,0.00,,,-99.99,WeatherLink 5.5,2013-01-17 10:05:00,
2013-01-17 06:00:00,28.5,27.3,29.87,West,270,9.0,21.0,95,0.00,,,-99.99,WeatherLink 5.5,2013-01-17 11:00:00,
2013-01-17 06:05:00,28.5,27.3,29.87,West,270,9.0,21.0,95,0.00,,,-99.99,WeatherLink 5.5,2013-01-17 11:05:00,
2013-01-17 07:00:00,28.2,27.0,29.90,West,270,8.0,14.0,95,0.00,,,-99.99,WeatherLink 5.5,2013-01-17 12:00:00,
2013-01-17 07:05:00,28.2,27.0,29.90,West,270,8.0,14.0,95,0.00,,,-99.99,WeatherLink 5.5,2013-01-17 12:05:00,
2013-01-17 08:00:00,28.7,27.2,29.92,West,270,7.0,17.0,94,0.00,,,-99.99,WeatherLink 5.5,2013-01-17 13:00:00,
2013-01-17 08:05:00,28.7,27.2,29.92,West,270,7.0,17.0,94,0.00,,,-99.99,WeatherLink 5.5,2013-01-17 13:05:00,
2013-01-17 09:00:00,30.7,29.2,29.94,West,270,6.0,11.0,94,0.00,,,-99.99,WeatherLink 5.5,2013-01-17 14:00:00,
2013-01-17 09:05:00,30.7,29.2,29.94,West,270,6.0,11.0,94,0.00,,,-99.99,WeatherLink 5.5,2013-01-17 14:05:00,
2013-01-17 10:00:00,32.1,30.8,29.97,West,270,8.0,14.0,95,0.00,,,-99.99,WeatherLink 5.5,2013-01-17 15:00:00,
2013-01-17 10:05:00,32.1,30.8,29.97,West,270,8.0,14.0,95,0.00,,,-99.99,WeatherLink 5.5,2013-01-17 15:05:00,
2013-01-17 11:00:00,32.2,31.4,29.97,West,270,9.0,17.0,97,0.00,,,-99.99,WeatherLink 5.5,2013-01-17 16:00:00,
2013-01-17 11:05:00,32.2,31.4,29.97,West,270,9.0,17.0,97,0.00,,,-99.99,WeatherLink 5.5,2013-01-17 16:05:00,
2013-01-17 12:00:00,32.7,31.9,29.96,West,270,9.0,16.0,97,0.00,,,-99.99,WeatherLink 5.5,2013-01-17 17:00:00,
2013-01-17 12:05:00,32.7,31.9,29.96,West,270,9.0,16.0,97,0.00,,,-99.99,WeatherLink 5.5,2013-01-17 17:05:00,
2013-01-17 13:00:00,34.3,33.8,29.95,West,270,9.0,17.0,98,0.00,,,-99.99,WeatherLink 5.5,2013-01-17 18:00:00,
2013-01-17 13:05:00,34.3,33.8,29.95,West,270,9.0,17.0,98,0.00,,,-99.99,WeatherLink 5.5,2013-01-17 18:05:00,
2013-01-17 14:00:00,34.1,33.6,29.97,NW,315,7.0,17.0,98,0.00,,,-99.99,WeatherLink 5.5,2013-01-17 19:00:00,
2013-01-17 14:05:00,34.1,33.6,29.97,NW,315,7.0,17.0,98,0.00,,,-99.99,WeatherLink 5.5,2013-01-17 19:05:00,
2013-01-17 15:00:00,34.6,34.1,29.97,NW,315,4.0,11.0,98,0.00,,,-99.99,WeatherLink 5.5,2013-01-17 20:00:00,
2013-01-17 15:05:00,34.6,34.1,29.97,NW,315,4.0,11.0,98,0.00,,,-99.99,WeatherLink 5.5,2013-01-17 20:05:00,
2013-01-17 16:00:00,33.4,32.6,29.97,NW,315,3.0,10.0,97,0.00,,,-99.99,WeatherLink 5.5,2013-01-17 21:00:00,
2013-01-17 16:05:00,33.4,32.6,29.97,NW,315,3.0,10.0,97,0.00,,,-99.99,WeatherLink 5.5,2013-01-17 21:05:00,
2013-01-17 17:00:00,31.9,31.1,30.00,North,0,2.0,8.0,97,0.00,,,-99.99,WeatherLink 5.5,2013-01-17 22:00:00,
2013-01-17 17:05:00,31.9,31.1,30.00,North,0,2.0,8.0,97,0.00,,,-99.99,WeatherLink 5.5,2013-01-17 22:05:00,
2013-01-17 18:00:00,30.9,24.8,30.03,NE,45,3.0,14.0,78,0.00,,,-99.99,WeatherLink 5.5,2013-01-17 23:00:00,
2013-01-17 18:05:00,30.9,24.8,30.03,NE,45,3.0,14.0,78,0.00,,,-99.99,WeatherLink 5.5,2013-01-17 23:05:00,
2013-01-17 19:00:00,30.4,22.4,30.05,ENE,67,3.0,13.0,72,0.00,,,-99.99,WeatherLink 5.5,2013-01-18 00:00:00,
2013-01-17 19:05:00,30.4,22.4,30.05,ENE,67,3.0,13.0,72,0.00,,,-99.99,WeatherLink 5.5,2013-01-18 00:05:00,
2013-01-17 20:00:00,25.4,19.2,30.04,NE,45,3.0,13.0,77,0.00,,,-99.99,WeatherLink 5.5,2013-01-18 01:00:00,
2013-01-17 20:05:00,25.4,19.2,30.04,NE,45,3.0,13.0,77,0.00,,,-99.99,WeatherLink 5.5,2013-01-18 01:05:00,
2013-01-17 21:00:00,23.9,17.4,30.02,NE,45,3.0,12.0,76,0.00,,,-99.99,WeatherLink 5.5,2013-01-18 02:00:00,
2013-01-17 21:05:00,23.9,17.4,30.02,NE,45,3.0,12.0,76,0.00,,,-99.99,WeatherLink 5.5,2013-01-18 02:05:00,
2013-01-17 22:00:00,21.6,12.7,30.01,NE,45,6.0,17.0,68,0.00,,,-99.99,WeatherLink 5.5,2013-01-18 03:00:00,
2013-01-17 22:05:00,21.6,12.7,30.01,NE,45,6.0,17.0,68,0.00,,,-99.99,WeatherLink 5.5,2013-01-18 03:05:00,
2013-01-17 23:00:00,20.6,10.0,30.00,ENE,67,5.0,14.0,63,0.00,,,-99.99,WeatherLink 5.5,2013-01-18 04:00:00,
2013-01-17 23:05:00,20.6,10.0,30.00,ENE,67,5.0,14.0,63,0.00,,,-99.99,WeatherLink 5.5,2013-01-18 04:05:00,